Saint Augustine, FL

1:56 AM EDT on October 01, 2016 (GMT -0400)
Saint Augustine

Weather History for KSGJ - October, 2012

Change the Weather History Date:

Tuesday, October 9, 2012

  Actual Average Record
Temperature  
Mean Temperature 72 °F -  
Max Temperature 75 °F 78 °F 88 °F (1975)
Min Temperature 64 °F 66 °F 53 °F (2000)
Cooling Degree Days 6    
Growing Degree Days 22 (Base 50)    
Moisture  
Dew Point 67 °F    
Average Humidity 86    
Maximum Humidity 94    
Minimum Humidity 73    
Precipitation  
Precipitation 0.00 in - - ()
Sea Level Pressure  
Sea Level Pressure 30.06 in    
Wind  
Wind Speed 10 mph (North)    
Max Wind Speed 15 mph    
Max Gust Speed 17 mph    
Visibility 8 miles    
Events      
Averages and records for this station are not official NWS values.
T = Trace of Precipitation, MM = Missing Value Source: NWS Daily Summary

Daily Weather History Graph

Daily Weather History Graph

Search for Another Location

Airport or City:

Trip Planner

Search our weather history database for the weather conditions in past years. The results will help you decide how hot, cold, wet, or windy it might be!

Date:

Astronomy

Oct. 09, 2012 Rise Set
Actual Time 7:23 AM EDT 7:00 PM EDT
Civil Twilight 6:59 AM EDT 7:24 PM EDT
Nautical Twilight 6:32 AM EDT 7:52 PM EDT
Astronomical Twilight 6:04 AM EDT 8:20 PM EDT
Moon 1:24 AM EDT (10/9) 3:04 PM EDT (10/9)
Length of Visible Light 12h 24m
Length of Day
11h 37m
Last Quarter, 37% of the Moon is Illuminated
Oct 9
Last Quarter
Oct 15
New
Oct 21
First Quarter
Oct 29
Full
Nov 6
Last Quarter

Hourly Weather History & Observations

Time (EDT) Temp. Dew Point Humidity Pressure Visibility Wind Dir Wind Speed Gust Speed Precip Events Conditions
12:11 AM 75.2 °F 71.6 °F 89% 30.04 in 10.0 mi NE 10.4 mph - N/A   Mostly Cloudy
12:31 AM 77.0 °F 71.6 °F 83% 30.03 in 10.0 mi NNE 10.4 mph - N/A   Mostly Cloudy
12:58 AM 75.0 °F 72.0 °F 90% 30.03 in 10.0 mi North 13.8 mph 17.3 mph N/A   Mostly Cloudy
1:58 AM 73.0 °F 70.0 °F 90% 30.03 in 10.0 mi NNW 12.7 mph - 0.00 in   Overcast
2:58 AM 72.0 °F 69.1 °F 91% 30.01 in 10.0 mi NNW 9.2 mph - N/A   Overcast
3:58 AM 72.0 °F 69.1 °F 91% 30.01 in 10.0 mi NNW 10.4 mph - N/A   Overcast
4:35 AM 71.6 °F 68.0 °F 88% 30.02 in 10.0 mi NNW 10.4 mph - N/A   Overcast
4:58 AM 71.1 °F 68.0 °F 90% 30.02 in 10.0 mi NNW 10.4 mph - N/A   Overcast
5:10 AM 69.8 °F 68.0 °F 94% 30.02 in 10.0 mi NNW 9.2 mph - N/A   Overcast
5:32 AM 69.8 °F 68.0 °F 94% 30.02 in 10.0 mi NNW 11.5 mph - N/A   Overcast
5:58 AM 70.0 °F 68.0 °F 93% 30.03 in 10.0 mi NNW 9.2 mph - N/A   Overcast
6:58 AM 69.1 °F 66.9 °F 93% 30.04 in 10.0 mi NNW 9.2 mph - N/A   Mostly Cloudy
7:58 AM 69.1 °F 66.9 °F 93% 30.05 in 10.0 mi NW 8.1 mph - N/A   Overcast
8:20 AM 69.8 °F 68.0 °F 94% 30.05 in 10.0 mi NW 10.4 mph - N/A   Overcast
8:29 AM 69.8 °F 68.0 °F 94% 30.06 in 10.0 mi NNW 8.1 mph - N/A   Overcast
8:56 AM 71.6 °F 68.0 °F 88% 30.07 in 10.0 mi NNW 9.2 mph - N/A   Overcast
8:58 AM 71.1 °F 68.0 °F 90% 30.07 in 10.0 mi NNW 8.1 mph - N/A   Overcast
9:04 AM 71.6 °F 68.0 °F 88% 30.07 in 6.0 mi NNW 9.2 mph - N/A   Mostly Cloudy
9:58 AM 71.1 °F 68.0 °F 90% 30.09 in 6.0 mi NNW 9.2 mph - N/A   Mostly Cloudy
10:58 AM 72.0 °F 68.0 °F 87% 30.10 in 6.0 mi NNW 11.5 mph - N/A   Overcast
11:58 AM 71.1 °F 66.9 °F 87% 30.10 in 6.0 mi NNW 15.0 mph - N/A   Overcast
12:58 PM 71.1 °F 66.9 °F 87% 30.09 in 3.0 mi North 12.7 mph - N/A   Overcast
1:58 PM 73.9 °F 66.9 °F 79% 30.08 in 4.0 mi North 13.8 mph - N/A   Haze
2:49 PM 73.4 °F 66.2 °F 78% 30.07 in 4.0 mi NNE 10.4 mph - N/A   Haze
2:58 PM 73.9 °F 66.9 °F 79% 30.07 in 4.0 mi North 13.8 mph - N/A   Haze
3:58 PM 73.9 °F 66.9 °F 79% 30.06 in 4.0 mi North 10.4 mph - N/A   Haze
4:58 PM 73.0 °F 66.0 °F 79% 30.06 in 5.0 mi North 13.8 mph - N/A   Haze
5:58 PM 73.0 °F 64.9 °F 76% 30.06 in 5.0 mi NNE 11.5 mph - N/A   Haze
6:02 PM 73.4 °F 64.4 °F 73% 30.06 in 10.0 mi NNE 12.7 mph - N/A   Overcast
6:07 PM 73.4 °F 64.4 °F 73% 30.06 in 10.0 mi NNE 9.2 mph - N/A   Overcast
6:58 PM 72.0 °F 64.0 °F 76% 30.07 in 5.0 mi NE 10.4 mph - N/A   Haze
7:53 PM 71.6 °F 62.6 °F 73% 30.07 in 10.0 mi NE 9.2 mph - N/A   Overcast
7:58 PM 72.0 °F 64.0 °F 76% 30.07 in 10.0 mi NE 6.9 mph - N/A   Overcast
8:54 PM 71.6 °F 62.6 °F 73% 30.09 in 10.0 mi NNE 6.9 mph - N/A   Scattered Clouds
8:58 PM 71.1 °F 63.0 °F 75% 30.09 in 10.0 mi NNE 8.1 mph - N/A   Scattered Clouds
9:33 PM 68.0 °F 64.4 °F 88% 30.10 in 10.0 mi NW 8.1 mph - N/A   Mostly Cloudy
9:39 PM 66.2 °F 64.4 °F 94% 30.10 in 10.0 mi NW 8.1 mph - N/A   Scattered Clouds
9:46 PM 66.2 °F 64.4 °F 94% 30.10 in 10.0 mi NW 6.9 mph - N/A   Mostly Cloudy
9:58 PM 66.9 °F 64.0 °F 90% 30.10 in 10.0 mi NW 8.1 mph - N/A   Scattered Clouds
10:58 PM 66.0 °F 63.0 °F 90% 30.11 in 9.0 mi WNW 4.6 mph - N/A   Clear
11:58 PM 64.9 °F 63.0 °F 93% 30.11 in 8.0 mi WNW 3.5 mph - N/A   Clear